Location: ????????
(55.6189°N, 38.3031°E)
Time: 04:20:41
(UTC+00:00)

SL-16 R/B - Pass Details

Date: 29 February 2020
Orbit: 843 x 847 km, 71.0° (Epoch: 04 April)

Event Time Altitude Azimuth Distance (km) Brightness Sun altitude
Exits shadow 03:40:40 - 301° (WNW) 2,986 4.5 -6.2°
Reaches altitude 10° 03:42:37 10° 314° (NW) 2,476 4.2 -6.0°
Maximum altitude 03:46:18 17° 355° (N) 2,007 4.1 -5.5°
Drops below altitude 10° 03:49:59 10° 35° (NE) 2,476 5.1 -4.9°
Sets 03:53:21 0° 56° (NE) 3,411 6.2 -4.5°
